Voltar ao catálogo

USA 396

AtivoNavegaçãoGEO
NORAD 60322·PAYLOAD·🇺🇸 United States

Lançado Jul 30, 2024 de Cape Canaveral Space Force Station

Loading…

TLE

AtualizadoSource: Mike McCants

Época: Sep 15, 2026, 04:34 UTC

1 60322U 24134A   26258.19043237  .00000000  00000-0  00000-0 0    02
2 60322   0.0653 149.2740 0001002 203.8353 156.1629  0.99737803  2348

Acompanhe USA 396 em tempo real com AllMySat

Download on the App Store